Regional Weather Roundup
Issued by NWS

Home | Current Version | Previous Version | Text Only | Print | Product List | Glossary Off
Versions: 1 2 3 4 5 6 7 8 9 10 11 12 13 14 15 16 17 18 19 20 21 22 23 24 25 26 27 28 29 30 31 32 33 34 35 36 37 38 39 40 41 42 43 44 45 46 47 48 49 50

000
ASUS45 KSLC 251510
RWRUT

UTAH REGIONAL WEATHER ROUNDUP
NATIONAL WEATHER SERVICE SALT LAKE CITY UT
900 AM MDT FRI JUL 25 2014

UTZ001>011-023>025-251600-

NORTHERN UTAH

CITY           SKY/WX    TMP DP  RH WIND       PRES   REMARKS
HILL AFB       SUNNY     69  42  37 E10       30.09R
LOGAN          SUNNY     60  39  45 CALM      30.12R
OGDEN          SUNNY     71  42  35 CALM      30.06R
PROVO AIRPORT  MOSUNNY   70  48  46 E5        30.09R
SALT LAKE CITY MOSUNNY   73  42  32 CALM      30.05R
VERNAL         MOSUNNY   74  56  53 CALM      30.13R
WENDOVER       MOSUNNY   73  34  23 NE5       30.07R
HEBER CITY     SUNNY     64  43  45 CALM      30.16S
WEST JORDAN    SUNNY     75  48  38 CALM      30.08R

$$

UTZ012>022-026-027-251600-

SOUTHERN UTAH

CITY           SKY/WX    TMP DP  RH WIND       PRES   REMARKS
BRYCE CANYON   CLOUDY    72  47  40 W5        30.36R
CEDAR CITY     MOSUNNY   79  48  33 SW13      30.16S
MILFORD        SUNNY     81  49  32 S13       30.11R
MOAB/CYNLANDS  MOSUNNY   84  50  30 SE7       30.08R
PRICE          PTSUNNY   79  48  33 E8        30.19R
ST GEORGE      SUNNY     90  50  25 CALM      30.00R
KANAB          PTSUNNY   81  48  32 CALM      30.20R

$$

REGIONAL REPORTS     COLORADO/ARIZONA

CITY           SKY/WX    TMP DP  RH WIND       PRES   REMARKS
CRAIG, CO      MOSUNNY   67  54  63 E14       30.22R
GRAND JUNCTION MOSUNNY   75  52  44 SE25G31   30.14R
RIFLE          MOSUNNY   71  51  49 VRB5      30.21S
MONTROSE       PTSUNNY   72  51  47 E6        30.27R
CORTEZ         MOSUNNY   76  52  43 CALM      30.26R
PAGE, AZ       PTSUNNY   89  48  24 VRB3      30.11R
GRAND CANYON   MOSUNNY   73  51  46 CALM      30.33R
KINGMAN        PTSUNNY   86  53  32 SE8       30.04R
FLAGSTAFF      SUNNY     68  51  54 SW6       30.37R

$$

REGIONAL REPORTS    NEVADA/IDAHO/WYOMING

CITY           SKY/WX    TMP DP  RH WIND       PRES   REMARKS
LAS VEGAS, NV  PTSUNNY   94  47  20 S10       29.85R HX  90
ELY            SUNNY     67  29  24 CALM      30.18F
ELKO           SUNNY     60  33  36 CALM      30.14R
POCATELLO, ID  SUNNY     63  27  25 SW9       30.15S
BURLEY         SUNNY     62  33  33 W5        30.13S
EVANSTON, WY   MOSUNNY   66  35  31 CALM      30.24R
ROCK SPRINGS   SUNNY     66  33  29 S3        30.20R

$$



USA.gov is the U.S. government's official web portal to all federal, state and local government web resources and services.